Tracking 29892 objects as of 21-Nov-2024
HD Live streaming from Space Station
objects crossing your sky now

STARLINK-31825

Track STARLINK-31825 now!
10-day predictions
STARLINK-31825 is classified as:


NORAD ID: 60056
Int'l Code: 2024-112U
Perigee: 481.5 km
Apogee: 483.2 km
Inclination: 53.2 °
Period: 94.1 minutes
Semi major axis: 6853 km
RCS: Unknown
Launch date: June 8, 2024
Source: United States (US)
Launch site: AIR FORCE WESTERN TEST RANGE (AFWTR)
Your satellite tracking list
Your tracking list is empty




NASA's NSSDC Master Catalog

Two Line Element Set (TLE):
1 60056U 24112U   24325.43862225  .00005545  00000-0  19920-3 0  9998
2 60056  53.1587 121.0599 0001218  73.5898 286.5237 15.30200397 25984
Source of the keplerian elements: AFSPC